Le nostre stazioni meteo in Italia

Pubblicità
Il mio iltempo24.it
Kinbrace, Gran Bretagna (99016): Temperatura & dewpoint: 15.08.2019 13:00:00 - 21.08.2019 13:00:00 (BST)Kinbrace, Gran Bretagna (99016): velocità del vento & gusts: 15.08.2019 13:00:00 - 21.08.2019 13:00:00 (BST)Kinbrace, Gran Bretagna (99016): direzione del vento: 15.08.2019 13:00:00 - 21.08.2019 13:00:00 (BST)Kinbrace, Gran Bretagna (99016): precipitazioni: 15.08.2019 13:00:00 - 21.08.2019 13:00:00 (BST)
Data & Tempo tt [°C] td [°C] ff [km/h] ff [kn] fx [km/h] fx [kn] dd rr [mm]
21.08.2019 13:00:00 - - - - - - - -
21.08.2019 12:00:00 16,3 11,0 28 15 - - S 0,0
21.08.2019 11:00:00 16,6 11,1 22 12 - - S 0,0
21.08.2019 10:00:00 14,8 10,1 16 9 - - SSE 0,0
21.08.2019 09:00:00 13,9 9,9 13 7 - - SE 0,0
21.08.2019 08:00:00 12,8 9,2 16 9 - - SE 0,0
21.08.2019 07:00:00 12,2 8,9 15 8 - - SE 0,0
21.08.2019 06:00:00 10,5 8,2 9 5 - - SE 0,0
21.08.2019 05:00:00 10,0 7,6 16 9 - - ESE 0,0
21.08.2019 04:00:00 7,8 7,3 2 1 - - SSO 0,0
21.08.2019 03:00:00 7,8 7,2 4 2 - - ESE 0,0
21.08.2019 02:00:00 8,3 7,1 5 3 - - S 0,0
21.08.2019 01:00:00 9,6 7,6 13 7 - - ESE 0,0
21.08.2019 00:00:00 10,6 8,1 18 10 - - SE 0,0
20.08.2019 23:00:00 11,0 8,6 16 9 - - SE 0,0
20.08.2019 22:00:00 11,2 8,6 15 8 - - ESE 0,0
20.08.2019 21:00:00 11,8 9,1 18 10 - - ESE 0,0
20.08.2019 20:00:00 13,0 8,1 15 8 - - ESE 0,0
20.08.2019 19:00:00 15,1 8,6 2 1 - - NO 0,0
20.08.2019 18:00:00 15,2 5,8 11 6 - - NNO 0,0
20.08.2019 17:00:00 15,4 6,7 9 5 - - NNO 0,0
20.08.2019 16:00:00 15,9 7,7 8 4 - - ONO 0,0
20.08.2019 15:00:00 15,2 7,6 13 7 - - NNO 0,0
20.08.2019 14:00:00 14,6 7,3 16 9 - - ONO 0,0
20.08.2019 13:00:00 14,3 7,6 21 11 - - NO 0,0
20.08.2019 12:00:00 13,0 7,7 16 9 - - NO 0,0
20.08.2019 11:00:00 12,4 7,4 16 9 - - ONO 0,0
20.08.2019 10:00:00 11,9 7,1 18 10 - - ONO 0,0
20.08.2019 09:00:00 11,8 7,9 13 7 - - ONO 0,0
20.08.2019 08:00:00 9,3 8,9 2 1 - - NNO 0,0
20.08.2019 07:00:00 8,2 7,9 4 2 - - N 0,0
20.08.2019 06:00:00 7,5 7,2 4 2 - - NO 0,0
20.08.2019 05:00:00 6,4 6,0 5 3 - - N 0,0
20.08.2019 04:00:00 5,7 4,8 9 5 - - N 0,0
20.08.2019 03:00:00 7,5 6,9 0 0 - - N 0,0
20.08.2019 02:00:00 7,8 7,0 2 1 - - SSO 0,0
20.08.2019 01:00:00 8,8 7,7 4 2 - - O 0,0
20.08.2019 00:00:00 9,2 8,4 9 5 - - NNO 0,0
19.08.2019 23:00:00 9,7 8,9 9 5 - - NO 0,0
19.08.2019 22:00:00 10,3 9,4 18 10 - - NNO 0,0
19.08.2019 21:00:00 10,3 8,9 15 8 - - NNO 0,0
19.08.2019 20:00:00 11,3 10,4 21 11 - - NO 0,6
19.08.2019 19:00:00 12,3 11,0 18 10 - - ONO 0,2
19.08.2019 18:00:00 14,1 10,2 18 10 - - ONO 0,0
19.08.2019 17:00:00 14,3 10,5 21 11 - - ONO 0,0
19.08.2019 16:00:00 13,3 11,6 11 6 - - ONO 0,2
19.08.2019 15:00:00 13,8 11,1 18 10 - - ONO 0,0
19.08.2019 14:00:00 13,9 12,0 22 12 - - ONO 0,6
19.08.2019 13:00:00 14,5 11,3 31 17 46 25 OSO 0,0
19.08.2019 12:00:00 14,3 11,6 22 12 - - O 0,0
19.08.2019 11:00:00 14,3 11,0 21 11 - - OSO 0,0
19.08.2019 10:00:00 14,4 10,9 26 14 - - OSO 0,0
19.08.2019 09:00:00 12,9 9,8 18 10 - - ONO 0,0
19.08.2019 08:00:00 12,5 10,2 11 6 - - O 0,0
19.08.2019 07:00:00 11,5 10,5 8 4 - - SSO 0,0
19.08.2019 06:00:00 11,2 9,5 8 4 - - SSO 0,0
19.08.2019 05:00:00 11,9 10,2 8 4 - - OSO 0,0
19.08.2019 04:00:00 11,4 10,1 8 4 - - SO 0,0
19.08.2019 03:00:00 12,1 10,8 9 5 - - OSO 0,0
19.08.2019 02:00:00 12,0 10,8 8 4 - - O 0,2
19.08.2019 01:00:00 12,3 10,8 9 5 - - O 0,4
19.08.2019 00:00:00 11,8 10,6 8 4 - - OSO 0,0
18.08.2019 23:00:00 11,5 10,2 9 5 - - NO 0,0
18.08.2019 22:00:00 11,9 10,4 9 5 - - NO 0,0
18.08.2019 21:00:00 12,1 11,0 15 8 - - NNO 0,0
18.08.2019 20:00:00 13,6 11,3 18 10 - - ONO 0,0
18.08.2019 19:00:00 13,6 11,8 15 8 - - ONO 0,2
18.08.2019 18:00:00 14,3 10,2 21 11 - - O 0,0
18.08.2019 17:00:00 13,9 11,8 11 6 - - N 0,0
18.08.2019 16:00:00 13,9 12,1 9 5 - - N 0,6
18.08.2019 15:00:00 15,9 12,1 13 7 - - OSO 0,4
18.08.2019 14:00:00 13,1 10,9 11 6 - - S 0,4
18.08.2019 13:00:00 17,3 11,1 22 12 - - S 0,0
18.08.2019 12:00:00 16,0 10,1 28 15 - - S 0,0
18.08.2019 11:00:00 14,0 9,8 24 13 - - S 0,0
18.08.2019 10:00:00 14,4 10,6 22 12 - - S 0,0
18.08.2019 09:00:00 14,3 10,8 21 11 - - S 0,0
18.08.2019 08:00:00 12,4 10,1 21 11 - - S 0,0
18.08.2019 07:00:00 11,1 9,5 16 9 - - SE 0,0
18.08.2019 06:00:00 11,5 9,3 15 8 - - SSE 0,0
18.08.2019 05:00:00 12,7 9,6 21 11 - - S 0,0
18.08.2019 04:00:00 12,4 9,3 24 13 - - SSE 0,0
18.08.2019 03:00:00 12,4 9,2 26 14 - - S 0,0
18.08.2019 02:00:00 12,3 9,5 24 13 50 27 SSE 0,0
18.08.2019 01:00:00 12,3 9,4 31 17 46 25 SSE 0,0
18.08.2019 00:00:00 11,9 9,9 28 15 - - SSE 0,8
17.08.2019 23:00:00 12,3 9,5 28 15 - - SSE 0,0
17.08.2019 22:00:00 11,9 8,9 26 14 - - SSE 0,0
17.08.2019 21:00:00 12,2 9,9 26 14 - - SSE 0,4
17.08.2019 20:00:00 11,2 9,2 18 10 - - SE 2,6
17.08.2019 19:00:00 12,2 9,5 21 11 - - SSE 0,6
17.08.2019 18:00:00 14,1 9,0 21 11 - - S 0,0
17.08.2019 17:00:00 15,6 8,1 16 9 - - S 0,0
17.08.2019 16:00:00 16,8 7,1 28 15 - - SO 0,0
17.08.2019 15:00:00 14,5 6,7 16 9 - - SSO 0,0
17.08.2019 14:00:00 15,6 7,2 18 10 - - SO 0,0
17.08.2019 13:00:00 14,1 8,2 16 9 - - OSO 0,0
17.08.2019 12:00:00 15,0 7,6 21 11 - - SO 0,0
17.08.2019 11:00:00 14,3 9,0 15 8 - - O 0,0
17.08.2019 10:00:00 14,5 9,8 24 13 - - O 0,0
17.08.2019 09:00:00 11,7 8,6 11 6 - - OSO 0,0
17.08.2019 08:00:00 11,5 9,0 15 8 - - O 0,2
17.08.2019 07:00:00 13,0 11,4 15 8 - - S 0,2
17.08.2019 06:00:00 12,4 11,3 15 8 - - ESE 0,0
17.08.2019 05:00:00 13,1 11,4 15 8 - - SE 0,0
17.08.2019 04:00:00 12,1 11,2 8 4 - - S 0,0
17.08.2019 03:00:00 10,9 9,6 4 2 - - E 0,0
17.08.2019 02:00:00 12,7 11,2 15 8 - - SE 0,0
17.08.2019 01:00:00 12,1 10,4 11 6 - - E 0,0
17.08.2019 00:00:00 12,7 10,8 9 5 - - E 0,0
16.08.2019 23:00:00 13,0 10,7 9 5 - - SSE 0,0
16.08.2019 22:00:00 13,7 11,3 13 7 - - ESE 0,0
16.08.2019 21:00:00 14,2 11,8 9 5 - - E 0,0
16.08.2019 20:00:00 16,3 11,2 16 9 - - S 0,0
16.08.2019 19:00:00 18,1 10,9 15 8 - - SO 0,0
16.08.2019 18:00:00 19,2 14,0 5 3 - - NNO 0,4
16.08.2019 17:00:00 15,1 13,7 15 8 52 28 OSO 0,6
16.08.2019 16:00:00 20,5 14,8 26 14 - - S 0,0
16.08.2019 15:00:00 19,3 13,6 28 15 - - S 0,0
16.08.2019 14:00:00 17,3 13,9 31 17 48 26 SSE 0,2
16.08.2019 13:00:00 15,4 13,1 39 21 50 27 SE 0,0
16.08.2019 12:00:00 15,3 13,1 34 18 50 27 SE 0,0
16.08.2019 11:00:00 14,5 13,2 37 20 48 26 SE 0,0
16.08.2019 10:00:00 14,0 12,9 35 19 - - SE 0,8
16.08.2019 09:00:00 13,6 12,5 31 17 - - SE 0,8
16.08.2019 08:00:00 13,2 12,3 29 16 - - SE 0,6
16.08.2019 07:00:00 13,0 12,0 31 17 - - SE 0,8
16.08.2019 06:00:00 12,9 11,8 28 15 - - SE 1,0
16.08.2019 05:00:00 13,0 11,6 26 14 - - SE 0,0
16.08.2019 04:00:00 12,5 11,1 21 11 - - ESE 0,4
16.08.2019 03:00:00 12,3 10,9 24 13 - - SE 0,4
16.08.2019 02:00:00 12,1 10,3 18 10 - - SE 0,0
16.08.2019 01:00:00 12,2 9,0 16 9 - - ESE 0,0
16.08.2019 00:00:00 12,0 8,3 15 8 - - SE 0,0
15.08.2019 23:00:00 11,1 7,0 16 9 - - ESE 0,0
15.08.2019 22:00:00 11,9 7,6 11 6 - - SE 0,0
15.08.2019 21:00:00 11,5 7,3 4 2 - - O 0,0
15.08.2019 20:00:00 13,3 5,7 8 4 - - O 0,0
15.08.2019 19:00:00 14,8 6,8 15 8 - - O 0,0
15.08.2019 18:00:00 14,0 7,5 21 11 - - ONO 0,0
15.08.2019 17:00:00 14,6 7,2 28 15 - - ONO 0,0
15.08.2019 16:00:00 14,4 7,7 22 12 - - NO 0,0
15.08.2019 15:00:00 15,9 8,1 28 15 46 25 NO 0,0
15.08.2019 14:00:00 15,7 7,6 28 15 46 25 ONO 0,0
15.08.2019 13:00:00 13,7 8,3 26 14 - - NO 0,0

tt = Temperatura
td = dewpoint
ff = velocità del vento
fx = gusts
dd = direzione del vento
rr = precipitazioni

Stazioni seguenti

WeatherPro
AMSI
MeteoEarth